Wind_Speed
21 22 22 23 23 23 24 25 24 24 23 22 22 21 20 21 21 22 22 22 22 23 22 21 21 20 19 19 19 19 19 19 20 20 20 19 19 18 18 18 18 19 20 20
22 22 23 23 24 24 24 25 25 25 23 22 22 22 22 22 22 22 23 24 24 23 21 21 21 21 21 20 20 20 20 20 20 20 19 19 19 19 19 19 19 19 20 21
21 22 23 23 23 25 26 26 26 25 24 24 23 22 22 22 23 23 23 24 24 23 22 22 22 22 22 22 22 21 22 21 22 21 21 21 21 21 20 19 19 20 20 21
22 22 23 22 22 24 25 25 26 25 23 23 24 24 23 23 24 24 24 24 24 24 23 23 23 23 23 24 24 23 23 23 23 23 22 22 22 22 22 22 22 22 22 22
23 22 22 22 22 23 24 24 24 25 24 23 23 24 24 24 25 25 24 24 24 24 24 25 25 25 25 25 24 24 23 24 23 23 23 23 23 24 24 23 23 23 23 23
24 24 23 21 22 22 23 24 23 24 24 24 25 24 24 24 24 24 24 24 24 25 25 26 26 26 26 26 25 25 25 25 25 25 25 24 24 25 25 25 24 24 24 24
23 24 23 22 22 22 23 23 23 24 24 24 25 25 25 25 25 25 26 26 26 25 24 25 27 27 27 27 27 27 26 26 26 26 25 25 25 25 26 26 26 26 26 25
23 24 23 22 22 22 22 23 23 23 24 24 24 25 25 25 26 26 27 27 27 27 26 26 27 27 28 28 28 28 27 27 26 26 26 26 27 27 27 27 27 27 27 26
23 22 22 22 22 22 22 22 22 22 22 23 23 24 25 26 26 27 28 28 28 28 28 28 28 28 28 28 28 29 28 28 28 27 27 28 28 28 28 28 27 27 27 27
24 22 22 21 22 22 22 22 22 22 22 22 23 24 25 26 26 27 27 28 29 29 29 29 29 29 28 28 28 28 28 28 28 28 28 28 28 27 28 29 28 27 27 28
23 23 22 22 22 22 22 22 22 22 22 23 24 25 26 26 26 26 27 27 28 28 28 28 28 28 28 27 27 27 27 28 27 27 27 26 26 26 27 27 27 27 28 28
23 23 24 23 23 23 23 23 23 23 24 24 25 25 26 26 26 26 27 27 27 27 27 27 27 27 27 26 26 26 26 25 25 26 25 25 25 25 26 26 27 28 28 28
24 25 25 24 24 24 24 25 25 25 25 26 26 26 26 25 24 25 25 25 25 25 26 26 27 26 26 26 26 25 25 24 24 25 24 24 24 24 25 26 27 28 28 28
24 24 24 25 24 25 25 25 25 25 25 25 25 25 25 24 24 24 25 25 24 24 24 24 24 25 25 26 25 25 24 24 24 24 24 24 24 25 26 26 27 27 28 28
24 24 24 25 25 25 25 24 24 25 25 25 25 24 24 24 24 24 25 25 24 23 23 23 23 23 25 25 25 25 24 25 25 25 25 26 26 26 27 27 27 28 28 29
24 24 24 25 25 25 25 25 24 24 24 24 24 24 24 25 25 25 24 24 23 23 23 23 23 23 24 24 25 25 25 25 25 25 26 27 27 27 27 27 27 27 28 28
23 23 24 24 24 24 24 24 24 24 24 24 24 24 24 25 25 25 24 23 22 22 22 23 23 23 23 24 24 24 25 25 25 25 26 27 27 27 27 27 26 26 26 26
21 21 21 22 22 22 22 22 23 23 23 23 23 23 23 24 24 25 24 23 23 22 22 23 23 23 22 22 23 24 23 23 24 24 25 25 25 26 26 26 26 26 26 26
20 19 19 19 20 20 21 22 22 22 22 23 23 23 23 23 23 23 23 23 22 22 21 22 22 21 20 20 20 21 22 23 23 23 24 23 24 25 25 25 25 25 25 25
19 19 19 18 19 19 20 21 21 21 22 22 23 23 22 22 23 22 21 21 21 20 20 20 20 19 19 20 21 21 22 22 22 23 23 24 24 24 25 25 24 24 24 24
18 18 18 18 18 18 18 19 19 19 20 21 22 22 23 22 21 21 20 20 20 20 20 20 19 18 19 20 21 21 21 22 22 23 23 23 23 23 23 23 23 22 22 22
18 17 17 17 17 17 18 18 18 18 19 20 21 21 22 21 20 20 20 20 19 19 19 19 18 18 19 20 20 20 20 20 21 22 22 22 22 22 22 22 21 21 21 21
17 17 17 17 17 18 18 18 18 18 18 18 19 19 20 20 20 19 19 19 18 18 18 18 19 19 19 19 19 19 20 20 20 21 21 21 21 21 21 21 21 21 21 20
18 18 18 18 18 18 18 18 18 18 18 18 18 18 18 19 19 19 18 17 17 17 17 18 18 18 18 18 19 20 20 21 20 21 21 21 20 20 20 20 20 20 20 20
17 18 18 18 18 18 18 17 17 17 18 18 18 18 18 18 18 18 17 17 17 17 17 17 17 18 18 19 19 19 20 20 20 20 20 19 19 20 20 20 19 19 20 20
18 18 18 18 18 18 18 17 17 17 17 17 17 17 17 17 17 17 17 18 17 17 17 17 17 18 18 18 18 18 18 19 19 19 19 19 19 19 19 19 19 19 19 19
18 18 19 19 19 19 18 17 17 17 17 16 16 16 16 16 16 17 17 17 17 17 17 17 17 17 17 17 18 18 19 19 18 18 19 19 18 18 18 18 18 18 18 19
Wind_Direction
247 247 249 252 253 254 255 258 261 264 266 270 270 270 270 271 272 271 271 273 276 274 271 273 275 278 281 284 285 285 285 287 285 283 281 279 280 283 281 278 279 279 276 275
252 250 250 252 252 254 256 259 262 265 268 269 270 267 266 269 271 272 271 271 274 274 272 272 275 279 280 283 285 283 282 283 284 282 279 279 280 282 281 280 280 280 278 274
256 254 253 254 254 254 257 260 262 264 266 267 268 268 266 266 269 271 273 271 271 270 269 271 275 277 278 282 284 283 281 281 281 280 276 276 278 280 281 282 283 284 280 277
260 257 256 257 257 258 261 264 265 265 265 266 266 267 266 264 266 268 269 269 270 271 272 272 275 277 279 281 281 281 279 279 280 279 277 277 277 278 279 281 281 281 280 277
258 259 259 259 260 262 264 266 268 268 268 267 266 267 266 267 268 269 270 270 270 271 273 274 276 278 280 281 279 277 276 277 277 275 275 277 277 276 277 279 279 280 278 275
260 259 260 262 263 266 267 267 266 267 268 269 268 268 268 268 269 270 271 272 271 272 274 275 276 276 278 278 278 276 276 276 276 276 275 275 274 275 276 276 277 278 277 277
262 263 263 264 265 267 268 268 267 267 268 268 268 269 269 270 271 273 274 274 274 274 276 278 276 276 277 277 277 276 275 275 275 275 274 272 272 274 275 275 275 275 275 275
261 263 264 264 266 265 268 269 269 268 267 268 268 269 270 271 272 273 275 277 277 276 277 278 278 278 278 277 279 278 276 277 276 276 274 274 275 275 275 275 276 275 273 273
258 262 264 264 264 266 268 271 271 269 269 269 269 269 270 272 273 275 276 277 278 277 277 278 279 278 279 279 279 279 277 277 278 277 276 276 277 276 275 275 275 274 272 273
257 260 261 262 263 265 267 269 271 270 270 269 270 271 271 273 275 276 278 278 279 279 278 278 278 279 279 279 280 280 278 278 280 278 276 275 275 275 275 274 274 273 273 273
259 258 261 263 264 265 268 270 272 273 272 272 272 272 273 275 276 278 280 281 281 279 278 278 279 280 279 280 281 281 279 279 279 279 278 276 276 276 275 273 274 275 276 275
260 260 261 262 263 266 269 271 273 273 274 274 275 275 275 276 278 280 282 281 281 280 278 277 278 278 278 280 281 281 281 280 278 279 279 276 276 276 276 275 275 277 278 277
261 261 262 263 265 266 268 271 272 273 274 275 276 278 278 278 280 282 282 283 282 281 280 279 277 276 276 277 280 281 281 281 280 281 281 279 279 278 278 278 277 278 278 278
263 263 263 265 267 268 269 271 272 272 273 275 275 276 278 279 281 281 282 282 285 285 282 281 278 276 275 276 278 280 279 279 281 282 284 283 281 281 282 281 279 278 279 278
264 264 263 265 266 268 270 270 271 270 271 272 273 275 277 279 280 280 280 281 283 285 283 281 279 277 276 276 278 279 279 279 280 281 284 285 284 283 283 282 281 280 279 278
265 264 266 268 268 269 269 270 270 270 270 271 273 275 277 278 279 280 281 282 282 284 284 282 278 277 277 277 278 279 279 279 280 281 283 285 285 284 283 283 282 282 281 279
268 268 269 270 271 270 269 270 271 270 270 272 274 276 278 279 280 281 281 282 282 283 282 281 280 279 279 278 278 279 280 281 282 284 285 285 285 285 284 284 284 283 282 281
269 270 271 270 269 268 267 268 268 268 269 271 274 277 279 280 281 281 280 280 281 283 283 280 280 280 281 280 278 280 282 283 283 285 287 288 287 286 286 286 286 285 283 282
267 269 271 272 270 268 268 268 267 267 268 270 272 275 279 279 280 281 280 280 281 281 282 282 281 280 280 283 284 285 286 286 285 285 287 288 288 287 287 287 286 286 284 282
268 269 271 273 272 270 268 268 269 269 269 270 272 275 278 280 281 281 281 280 280 281 281 281 281 280 281 283 285 288 290 290 289 288 289 289 288 287 287 287 288 287 285 284
268 270 272 273 273 272 272 272 270 270 272 273 275 277 279 280 281 281 281 280 280 279 280 280 280 280 282 284 286 287 289 290 292 292 292 291 291 290 289 289 289 288 287 285
268 269 269 271 272 274 275 275 274 274 276 278 279 279 280 281 281 280 280 280 280 280 281 279 279 280 283 286 287 287 289 290 292 293 292 292 293 293 292 291 289 289 288 286
267 268 269 271 273 275 276 276 276 277 278 280 281 281 281 281 281 280 280 279 278 279 280 280 280 281 283 285 285 287 289 292 293 294 294 292 291 293 293 291 290 290 289 288
268 269 269 271 272 272 274 276 277 278 279 280 281 281 281 281 280 279 277 276 277 279 281 281 281 282 283 282 284 287 290 292 294 295 296 294 292 293 292 291 291 290 289 288
269 271 272 271 270 270 272 274 276 278 279 281 281 280 280 280 281 280 277 276 278 280 281 280 279 281 283 285 286 288 290 293 295 297 298 297 295 294 293 291 290 290 289 289
268 268 269 271 270 271 272 272 274 277 279 280 282 283 282 282 282 280 277 277 279 281 282 282 282 283 284 286 288 290 291 293 296 297 298 298 296 295 296 295 292 290 290 290
267 268 268 270 271 271 270 269 272 276 280 283 284 283 283 282 283 284 282 279 278 279 281 282 283 283 284 286 288 290 291 293 294 295 297 297 296 296 297 298 297 296 294 293
Height
5811 5812 5813 5814 5816 5816 5817 5818 5820 5821 5821 5823 5823 5823 5823 5823 5823 5823 5823 5823 5822 5822 5822 5821 5821 5820 5820 5819 5818 5818 5817 5816 5815 5814 5813 5812 5812 5811 5810 5810 5809 5808 5808 5807
5805 5806 5807 5809 5810 5811 5812 5812 5813 5814 5816 5816 5816 5816 5817 5817 5817 5817 5817 5816 5816 5816 5816 5816 5815 5815 5814 5813 5812 5812 5811 5811 5810 5809 5808 5807 5807 5806 5806 5804 5803 5802 5801 5801
5800 5801 5802 5804 5805 5806 5806 5807 5808 5809 5810 5810 5811 5810 5810 5810 5811 5810 5810 5810 5809 5809 5809 5809 5809 5809 5808 5807 5807 5806 5805 5804 5804 5803 5802 5801 5801 5801 5800 5799 5798 5796 5795 5795
5794 5796 5797 5801 5799 5800 5801 5801 5802 5803 5803 5804 5804 5804 5804 5804 5804 5804 5804 5804 5803 5803 5803 5802 5802 5802 5801 5801 5800 5799 5799 5798 5797 5797 5796 5795 5795 5794 5794 5793 5792 5791 5790 5789
5788 5789 5791 5793 5794 5794 5795 5796 5796 5796 5797 5798 5798 5798 5798 5798 5798 5798 5798 5797 5797 5797 5796 5796 5796 5795 5795 5795 5794 5793 5792 5791 5791 5790 5790 5789 5788 5787 5787 5786 5785 5784 5784 5783
5782 5783 5785 5788 5788 5788 5790 5790 5790 5790 5791 5791 5791 5792 5792 5792 5791 5791 5791 5791 5791 5790 5790 5789 5789 5788 5788 5787 5787 5786 5786 5785 5784 5783 5783 5782 5781 5780 5779 5778 5778 5777 5777 5776
5776 5777 5779 5781 5782 5783 5784 5785 5784 5784 5784 5785 5785 5786 5785 5784 5784 5784 5784 5783 5783 5783 5783 5782 5781 5781 5780 5780 5779 5779 5778 5777 5777 5776 5775 5774 5774 5773 5772 5771 5771 5770 5770 5769
5771 5772 5775 5775 5775 5777 5777 5777 5777 5778 5778 5778 5778 5778 5778 5778 5777 5777 5777 5776 5776 5775 5775 5775 5774 5773 5772 5772 5772 5771 5771 5770 5769 5768 5768 5767 5766 5765 5764 5763 5763 5762 5761 5761
5766 5768 5768 5768 5769 5770 5770 5771 5771 5771 5771 5771 5772 5772 5771 5771 5770 5770 5769 5769 5768 5768 5768 5767 5766 5765 5765 5764 5764 5763 5762 5762 5761 5760 5759 5759 5758 5756 5756 5755 5754 5754 5753 5752
5759 5761 5761 5762 5763 5763 5764 5764 5764 5765 5765 5765 5765 5765 5764 5764 5763 5763 5762 5761 5761 5760 5760 5759 5758 5757 5757 5756 5755 5755 5754 5753 5752 5751 5750 5750 5749 5748 5747 5746 5746 5745 5745 5744
5753 5754 5755 5756 5757 5757 5757 5758 5758 5758 5758 5758 5758 5758 5757 5757 5756 5755 5755 5754 5753 5752 5752 5751 5750 5750 5749 5748 5747 5746 5745 5745 5744 5743 5742 5741 5740 5739 5738 5738 5737 5737 5736 5735
5747 5748 5749 5750 5750 5751 5751 5751 5751 5752 5752 5751 5751 5750 5750 5749 5749 5748 5747 5746 5745 5745 5744 5743 5743 5742 5741 5740 5740 5739 5738 5736 5736 5735 5734 5733 5732 5731 5730 5730 5729 5728 5727 5726
5740 5741 5742 5743 5744 5744 5744 5744 5744 5744 5744 5744 5743 5742 5742 5742 5741 5740 5739 5738 5737 5736 5736 5736 5735 5734 5734 5733 5732 5731 5730 5729 5728 5727 5726 5725 5724 5723 5723 5722 5720 5719 5718 5717
5733 5734 5735 5736 5736 5737 5737 5737 5737 5737 5736 5736 5735 5735 5735 5734 5734 5733 5732 5731 5730 5729 5728 5728 5727 5727 5726 5725 5724 5724 5723 5722 5721 5720 5719 5718 5717 5716 5714 5713 5712 5711 5710 5709
5726 5727 5728 5728 5729 5729 5729 5729 5729 5729 5729 5729 5728 5728 5728 5728 5727 5726 5725 5724 5724 5722 5721 5720 5719 5719 5718 5717 5717 5716 5716 5715 5714 5713 5712 5710 5709 5708 5706 5705 5704 5703 5701 5700
5719 5719 5720 5721 5721 5721 5721 5722 5722 5722 5722 5722 5721 5721 5721 5720 5720 5719 5719 5717 5716 5715 5714 5713 5712 5711 5711 5710 5709 5709 5708 5707 5706 5705 5704 5703 5701 5700 5698 5697 5696 5694 5693 5692
5712 5712 5713 5713 5713 5713 5713 5714 5714 5714 5714 5714 5714 5714 5714 5713 5713 5712 5711 5710 5709 5708 5707 5706 5705 5705 5703 5703 5702 5701 5700 5699 5699 5698 5696 5695 5693 5692 5690 5689 5687 5686 5685 5683
5705 5705 5705 5705 5705 5705 5706 5706 5706 5706 5707 5707 5707 5707 5707 5706 5705 5704 5704 5703 5702 5701 5700 5699 5698 5697 5696 5695 5695 5694 5693 5692 5691 5690 5688 5687 5685 5684 5682 5681 5679 5678 5676 5675
5698 5698 5698 5698 5698 5698 5698 5699 5699 5699 5700 5700 5700 5700 5699 5699 5698 5697 5696 5696 5695 5694 5693 5692 5691 5690 5690 5689 5688 5687 5686 5684 5683 5682 5680 5679 5677 5676 5674 5673 5671 5670 5668 5667
5692 5692 5692 5692 5692 5692 5692 5692 5692 5692 5693 5693 5693 5692 5692 5691 5690 5689 5689 5688 5688 5687 5686 5685 5684 5684 5683 5682 5682 5681 5679 5678 5676 5675 5673 5672 5670 5669 5667 5665 5664 5662 5661 5660
5686 5686 5686 5686 5686 5686 5686 5686 5686 5686 5686 5686 5686 5685 5684 5683 5683 5682 5681 5681 5681 5680 5680 5679 5678 5678 5677 5676 5675 5674 5673 5671 5670 5668 5666 5664 5663 5661 5660 5658 5657 5656 5654 5653
5680 5680 5680 5680 5680 5680 5680 5680 5680 5680 5680 5679 5679 5678 5677 5676 5676 5675 5675 5674 5674 5674 5673 5673 5672 5672 5671 5670 5669 5668 5666 5665 5663 5661 5660 5658 5656 5654 5653 5651 5650 5649 5648 5647
5675 5675 5675 5675 5675 5675 5675 5674 5674 5674 5674 5673 5672 5672 5671 5670 5669 5669 5668 5668 5667 5667 5667 5667 5666 5665 5665 5664 5663 5662 5660 5659 5657 5655 5653 5651 5650 5648 5646 5645 5644 5643 5641 5640
5669 5669 5669 5669 5670 5670 5670 5669 5669 5668 5668 5667 5667 5666 5665 5664 5664 5663 5662 5662 5662 5662 5661 5660 5660 5659 5658 5657 5656 5655 5654 5652 5650 5649 5647 5645 5643 5641 5640 5639 5638 5636 5635 5634
5663 5663 5663 5664 5664 5664 5664 5664 5663 5663 5662 5662 5661 5660 5659 5659 5658 5657 5657 5657 5656 5656 5655 5655 5654 5653 5652 5651 5650 5648 5647 5646 5644 5642 5640 5638 5637 5636 5634 5633 5632 5630 5629 5628
5658 5658 5658 5658 5658 5658 5658 5658 5658 5657 5657 5656 5655 5655 5654 5653 5653 5652 5651 5651 5650 5650 5650 5649 5648 5647 5646 5645 5643 5642 5641 5639 5638 5636 5635 5633 5631 5630 5628 5627 5625 5624 5623 5622
5652 5652 5652 5652 5652 5652 5652 5652 5652 5652 5651 5651 5650 5649 5649 5648 5647 5646 5646 5645 5645 5644 5644 5643 5642 5641 5640 5638 5637 5636 5635 5634 5632 5631 5629 5627 5626 5625 5623 5621 5620 5618 5617 5616